Regional Weather Roundup
Issued by NWS

Home | Current Version | Previous Version | Graphics & Text | Print | Product List | Glossary On
Versions: 1 2 3 4 5 6 7 8 9 10 11 12 13 14 15 16 17 18 19 20 21 22 23 24 25 26 27 28 29 30 31 32 33 34 35 36 37 38 39 40 41 42 43 44 45 46 47 48 49 50
000
ASUS43 KDTX 212210
RWRMI
MICHIGAN HOURLY REGIONAL WEATHER ROUNDUP
NATIONAL WEATHER SERVICE DETROIT/PONTIAC MI
500 PM EST TUE NOV 21 2017

NOTE: "FAIR" INDICATES FEW OR NO CLOUDS BELOW 12,000 FEET WITH NO
SIGNIFICANT WEATHER AND/OR OBSTRUCTION TO VISIBILITY.

MIZ047>049-052>055-059>063-066>070-074>076-081>083-212300-
SOUTHEAST LOWER MICHIGAN

CITY           SKY/WX    TMP DP  RH WIND       PRES   REMARKS
ADRIAN         LGT RAIN  41  34  76 W13G21    29.88R
ALMA           CLOUDY    39  25  56 W12G18    29.85R WCI  32
ANN ARBOR      LGT RAIN  42  38  85 SW10      29.84R
BAD AXE        CLOUDY    39  33  78 SW13      29.80R WCI  32
CARO           MOCLDY    39  35  85 SW8       29.82R WCI  33
DETROIT CITY   LGT RAIN  46  36  68 W12G22    29.83R
DETROIT        LGT RAIN  45  38  76 W13G21    29.85R
FLINT          CLOUDY    39  35  86 W12       29.84R WCI  32
GROSSE ILE     CLOUDY    47  34  59 W9G18     29.84R
HILLSDALE      LGT RAIN  36  34  93 W10G16    29.86R WCI  28
HOWELL         DRIZZLE   38  37  97 W8        29.84R WCI  32

CITY           SKY/WX    TMP DP  RH WIND       PRES   REMARKS
JACKSON        LGT RAIN  39  35  86 SW10      29.86R FOG     WCI  32
LAMBERTVILLE   RAIN      49  35  59 W9G17     29.87R
LANSING        CLOUDY    39  35  86 W10       29.87R WCI  32
LAPEER         CLOUDY    38  34  84 W8        29.82R WCI  32
MASON          CLOUDY    40  37  87 W9        29.86R WCI  34
MONROE         CLOUDY    48  33  56 W14G22    29.85R
MT. CLEMENS    LGT RAIN  44  42  91 W12       29.82R
PONTIAC        LGT RAIN  40  38  93 W13       29.82R WCI  32
PORT HOPE        N/A     43  27  53 W12       29.76R
PORT HURON     LGT RAIN  41  37  87 W8G18     29.82R
TRI CITIES     MOCLDY    41  26  55 W14       29.83R
MIDLAND        MOCLDY    40  24  53 NW12G21   29.83R WCI  33
TROY           LGT RAIN  45  40  83 W8G16     29.85R
SAGINAW HB     CLOUDY    39  28  65 W12G17    29.82R WCI  32
$$
MIZ043>046-050>051-056>058-064>065-071>073-077>080-212300-
SOUTHWEST LOWER MICHIGAN

CITY           SKY/WX    TMP DP  RH WIND       PRES   REMARKS
BATTLE CREEK   CLOUDY    38  32  79 NW13      29.88R WCI  30
BENTON HARBOR  CLOUDY    37  25  61 NW13G24   29.95R WCI  29
BIG RAPIDS     CLOUDY    35  21  57 NW8G18    29.86R WCI  28
COLDWATER      LGT RAIN  37  37  98 SW13      29.88R WCI  29
FREMONT        CLOUDY    35  25  66 NW14      29.89R WCI  26
HOLLAND        MOCLDY    37  26  64 NW14G23   29.92R WCI  28
GRAND RAPIDS   CLOUDY    37  27  67 NW15      29.88R WCI  28
IONIA          FAIR      38  25  58 W9        29.86R WCI  32
KALAMAZOO      CLOUDY    38  29  70 NW13      29.89R WCI  30
LUDINGTON      CLOUDY    33  20  57 NW14G22   29.92R WCI  24
MARSHALL       CLOUDY    37  37  97 W8        29.86R WCI  31
MOUNT PLEASANT CLOUDY    39  22  49 NW8       29.84R WCI  33
MUSKEGON       CLOUDY    37  23  56 NW22G29   29.92R WCI  26
SOUTH HAVEN    CLOUDY    38  26  62 NW13G18   29.94R WCI  30
$$
MIZ016>042-212300-
NORTHERN LOWER MICHIGAN

CITY           SKY/WX    TMP DP  RH WIND       PRES   REMARKS
ALPENA         CLOUDY    35  22  58 NW10G21   29.80R WCI  27
BEAVER ISLAND  CLOUDY    30  21  69 NW13G28   29.88R WCI  20
BELLAIRE       CLOUDY    32  23  69 NW9G17    29.88R WCI  24
CADILLAC       CLOUDY    31  19  61 NW14G22   29.84R WCI  21
CHARLEVOIX     CLOUDY    32  22  65 NW21G30   29.90R WCI  20
FRANKFORT      CLOUDY    33  21  61 NW16G22   29.92R WCI  23
GAYLORD        CLOUDY    29  20  69 NW15G23   29.80R WCI  18
GRAYLING       CLOUDY    32  19  59 W12G24    29.83R WCI  23
HARBOR SPRINGS CLOUDY    31  20  62 W13G22    29.84R WCI  21
HOUGHTON LAKE  CLOUDY    32  21  64 NW12      29.83R WCI  23
MANISTEE       LGT RAIN  34  20  56 NW13G22   29.92R WCI  25
OSCODA         CLOUDY    37  23  56 NW15G26   29.79R WCI  28
PELLSTON       CLOUDY    31  19  61 NW21G29   29.84R WCI  18
ROGERS CITY    CLOUDY    32  20  61 W10G22    29.81R WCI  24
TRAVERSE CITY  FLURRIES  33  21  61 NW17      29.88R WCI  22
$$
MIZ007>008-015-212300-
EASTERN UPPER MICHIGAN

CITY           SKY/WX    TMP DP  RH WIND       PRES   REMARKS
KINROSS        FLURRIES  27  21  78 NW21G29   29.79R WCI  13
MACKINAC ISLAN CLOUDY    31  19  62 NW24G31   29.81R WCI  17
NEWBERRY       CLOUDY    26  20  77 NW13G26   29.84R WCI  15
S. S. MARIE    FLURRIES  29  20  69 NW22G32   29.78R WCI  15
MUNISING         N/A     28  24  85 NW20G29   29.92R WCI  15
$$
MIZ004>006-011>014-085-212300-
CENTRAL UPPER MICHIGAN

CITY           SKY/WX    TMP DP  RH WIND       PRES   REMARKS
MANISTIQUE     FLURRIES  27  12  54 NW20G28   29.89R WCI  13
ESCANABA       CLOUDY    27  15  61 NW14G20   29.96R WCI  16
MENOMINEE      CLOUDY    29  16  58 N10G21    29.99R WCI  20
SAWYER-GWINN   FLURRIES  21  14  73 NW18G31   29.93R WCI   6
$$
MIZ001>003-009>011-084-212300-
WESTERN UPPER MICHIGAN

CITY           SKY/WX    TMP DP  RH WIND       PRES   REMARKS
IRON MOUNTAIN  CLOUDY    22  10  60 NW26G32   29.96R WCI   5
HOUGHTON       LGT SNOW  22  13  68 NW17G30   29.97R WCI   8
COPPER HARBOR    N/A     27  18  69 N28G37    29.95R WCI  11
IRONWOOD       FLURRIES  21  13  71 NW12      30.06R WCI   9
$$

ABBREVIATIONS USED IN REMARKS
   TC - TEMPERATURE IN CELSIUS
  WCI - WIND CHILL INDEX
   HX - HEAT INDEX
  VSB - VISIBILITY





USA.gov is the U.S. government's official web portal to all federal, state and local government web resources and services.